JASON-2 (OSTM)

Last updated on Wed Nov 20 2019 04:19:53 GMT+0000 (Coordinated Universal Time)

1 33105U 08032A 19322.83995810 -.00000040 00000-0 86808-4 0 9994 2 33105 66.0415 62.1474 0007618 266.0841 234.2058 12.87622467534426

Satellite not in orbit

JASON-2 (OSTM)